TimeEST,TemperatureF,Dew PointF,Humidity,Sea Level PressureIn,VisibilityMPH,Wind Direction,Wind SpeedMPH,Gust SpeedMPH,PrecipitationIn,Events,Conditions,WindDirDegrees,DateUTC
12:15 AM,31.1,27.0,85,29.94,10.0,Calm,Calm,-,N/A,,Clear,0,2014-01-13 05:15:00
12:35 AM,31.5,27.1,84,29.94,10.0,Calm,Calm,-,N/A,,Clear,0,2014-01-13 05:35:00
12:55 AM,31.3,26.4,82,29.96,10.0,East,3.5,-,N/A,,Clear,80,2014-01-13 05:55:00
1:15 AM,32.0,25.5,77,29.97,10.0,Calm,Calm,-,N/A,,Clear,0,2014-01-13 06:15:00
1:35 AM,32.0,25.7,78,29.98,10.0,Calm,Calm,-,N/A,,Clear,0,2014-01-13 06:35:00
1:55 AM,32.9,25.3,74,29.98,10.0,East,3.5,-,N/A,,Clear,90,2014-01-13 06:55:00
2:15 AM,32.9,25.3,74,29.99,10.0,ESE,3.5,-,N/A,,Clear,120,2014-01-13 07:15:00
2:35 AM,32.2,25.7,77,30.00,10.0,ESE,4.6,-,N/A,,Clear,110,2014-01-13 07:35:00
2:55 AM,32.9,25.5,74,30.00,10.0,East,4.6,-,N/A,,Clear,100,2014-01-13 07:55:00
3:15 AM,32.9,25.7,75,30.00,10.0,East,5.8,-,N/A,,Clear,100,2014-01-13 08:15:00
3:35 AM,32.9,26.1,76,30.00,10.0,ESE,8.1,-,N/A,,Clear,110,2014-01-13 08:35:00
3:55 AM,32.9,25.7,75,30.01,10.0,ESE,6.9,-,N/A,,Clear,110,2014-01-13 08:55:00
4:15 AM,32.5,25.7,76,30.01,10.0,East,3.5,-,N/A,,Clear,90,2014-01-13 09:15:00
4:35 AM,32.9,25.3,74,29.99,10.0,East,6.9,-,N/A,,Clear,90,2014-01-13 09:35:00
4:55 AM,32.7,25.3,74,29.99,10.0,East,5.8,-,N/A,,Clear,100,2014-01-13 09:55:00
5:15 AM,32.5,25.2,74,29.99,10.0,ESE,4.6,-,N/A,,Clear,110,2014-01-13 10:15:00
5:35 AM,32.9,25.3,74,29.99,10.0,ESE,6.9,-,N/A,,Clear,110,2014-01-13 10:35:00
5:55 AM,33.1,25.3,73,29.99,10.0,ESE,9.2,-,N/A,,Clear,110,2014-01-13 10:55:00
6:15 AM,33.6,25.3,72,29.98,10.0,ESE,9.2,-,N/A,,Clear,110,2014-01-13 11:15:00
6:35 AM,33.8,25.7,72,29.99,10.0,ESE,9.2,17.3,N/A,,Clear,110,2014-01-13 11:35:00
6:55 AM,33.8,25.7,72,29.98,10.0,ESE,8.1,-,N/A,,Clear,110,2014-01-13 11:55:00
7:15 AM,34.3,25.7,71,29.98,10.0,ESE,9.2,16.1,N/A,,Clear,110,2014-01-13 12:15:00
7:35 AM,34.3,25.7,71,29.98,10.0,ESE,10.4,-,N/A,,Clear,110,2014-01-13 12:35:00
7:55 AM,34.7,25.7,70,29.98,10.0,ESE,10.4,16.1,N/A,,Clear,120,2014-01-13 12:55:00
8:15 AM,34.7,25.5,69,29.98,10.0,ESE,3.5,-,N/A,,Clear,120,2014-01-13 13:15:00
8:35 AM,35.8,25.9,67,30.01,10.0,SE,6.9,-,N/A,,Clear,130,2014-01-13 13:35:00
8:55 AM,36.9,25.7,64,30.01,10.0,ESE,3.5,-,N/A,,Clear,110,2014-01-13 13:55:00
9:15 AM,37.8,26.1,63,30.01,10.0,ESE,6.9,-,N/A,,Clear,120,2014-01-13 14:15:00
9:35 AM,39.2,25.9,59,29.99,10.0,ESE,9.2,-,N/A,,Clear,120,2014-01-13 14:35:00
9:55 AM,39.6,25.7,58,29.99,10.0,ESE,13.8,17.3,N/A,,Clear,120,2014-01-13 14:55:00
10:15 AM,39.6,25.2,56,29.97,10.0,ESE,10.4,-,N/A,,Clear,110,2014-01-13 15:15:00
10:35 AM,40.8,25.0,53,29.97,10.0,ESE,9.2,-,N/A,,Clear,120,2014-01-13 15:35:00
10:55 AM,42.1,23.7,48,29.97,10.0,SSE,5.8,-,N/A,,Clear,160,2014-01-13 15:55:00
11:15 AM,42.4,24.6,49,29.94,10.0,ESE,5.8,-,N/A,,Clear,120,2014-01-13 16:15:00
11:35 AM,43.3,25.9,50,29.93,10.0,South,4.6,-,N/A,,Clear,170,2014-01-13 16:35:00
11:55 AM,45.0,27.1,50,29.91,10.0,SSE,4.6,-,N/A,,Clear,160,2014-01-13 16:55:00
12:15 PM,46.4,24.6,42,29.89,10.0,SE,16.1,21.9,N/A,,Clear,140,2014-01-13 17:15:00
12:35 PM,44.8,27.0,50,29.89,10.0,SSE,5.8,-,N/A,,Clear,160,2014-01-13 17:35:00
12:55 PM,46.2,25.5,44,29.87,10.0,SE,8.1,-,N/A,,Clear,140,2014-01-13 17:55:00
1:15 PM,47.1,24.8,42,29.87,10.0,SSE,5.8,-,N/A,,Clear,150,2014-01-13 18:15:00
1:35 PM,45.5,24.4,44,29.86,10.0,South,5.8,-,N/A,,Clear,170,2014-01-13 18:35:00
1:55 PM,45.7,26.2,47,29.86,10.0,SSE,3.5,-,N/A,,Clear,160,2014-01-13 18:55:00
2:15 PM,45.3,27.3,49,29.84,10.0,SE,4.6,-,N/A,,Clear,130,2014-01-13 19:15:00
2:35 PM,45.5,27.5,49,29.84,10.0,SE,8.1,-,N/A,,Clear,140,2014-01-13 19:35:00
2:55 PM,42.3,28.0,57,29.85,10.0,SSE,4.6,-,N/A,,Clear,150,2014-01-13 19:55:00
3:15 PM,41.7,28.9,61,29.86,10.0,East,3.5,-,N/A,,Clear,100,2014-01-13 20:15:00
3:35 PM,42.1,28.2,58,29.87,10.0,East,5.8,-,N/A,,Clear,100,2014-01-13 20:35:00
3:55 PM,42.1,28.6,59,29.87,10.0,ESE,8.1,-,N/A,,Clear,110,2014-01-13 20:55:00
4:15 PM,42.1,28.2,58,29.87,10.0,East,6.9,-,N/A,,Clear,100,2014-01-13 21:15:00
4:35 PM,41.5,28.4,60,29.87,10.0,East,5.8,-,N/A,,Clear,100,2014-01-13 21:35:00
4:55 PM,41.5,28.4,60,29.84,10.0,East,3.5,-,N/A,,Clear,100,2014-01-13 21:55:00
5:15 PM,39.7,29.5,67,29.86,10.0,SE,3.5,-,N/A,,Clear,130,2014-01-13 22:15:00
5:35 PM,40.6,29.8,65,29.85,10.0,ESE,3.5,-,N/A,,Clear,120,2014-01-13 22:35:00
5:55 PM,42.3,29.5,61,29.84,10.0,ESE,3.5,-,N/A,,Clear,110,2014-01-13 22:55:00
6:15 PM,42.4,29.8,61,29.85,10.0,Calm,Calm,-,N/A,,Clear,0,2014-01-13 23:15:00
6:35 PM,40.8,30.6,67,29.84,10.0,Calm,Calm,-,N/A,,Clear,0,2014-01-13 23:35:00
6:55 PM,40.6,31.1,69,29.82,10.0,Calm,Calm,-,N/A,,Clear,0,2014-01-13 23:55:00
7:15 PM,43.7,30.6,60,29.81,10.0,East,5.8,-,N/A,,Clear,100,2014-01-14 00:15:00
7:35 PM,46.4,29.1,51,29.79,10.0,SE,9.2,-,N/A,,Clear,130,2014-01-14 00:35:00
7:55 PM,45.9,29.3,52,29.79,10.0,SE,6.9,-,N/A,,Clear,130,2014-01-14 00:55:00
8:15 PM,46.8,28.2,49,29.79,10.0,SE,6.9,-,N/A,,Clear,130,2014-01-14 01:15:00
8:35 PM,43.3,29.1,57,29.80,10.0,ESE,3.5,-,N/A,,Clear,110,2014-01-14 01:35:00
8:55 PM,42.3,29.3,60,29.80,10.0,East,3.5,-,N/A,,Clear,90,2014-01-14 01:55:00
9:15 PM,45.5,30.2,55,29.78,10.0,ESE,8.1,-,N/A,,Clear,110,2014-01-14 02:15:00
9:35 PM,46.9,30.9,54,29.78,10.0,ESE,10.4,16.1,N/A,,Scattered Clouds,120,2014-01-14 02:35:00
9:55 PM,47.7,32.0,55,29.77,10.0,ESE,15.0,24.2,N/A,,Overcast,120,2014-01-14 02:55:00
10:15 PM,48.2,32.0,54,29.77,10.0,SE,13.8,18.4,N/A,,Overcast,130,2014-01-14 03:15:00
10:35 PM,48.2,32.0,54,29.78,10.0,SE,12.7,19.6,N/A,,Overcast,140,2014-01-14 03:35:00
10:55 PM,47.7,32.0,55,29.78,10.0,SSE,10.4,17.3,N/A,,Overcast,150,2014-01-14 03:55:00
11:15 PM,46.2,32.7,59,29.77,10.0,SE,8.1,-,N/A,,Overcast,140,2014-01-14 04:15:00
11:35 PM,45.3,33.3,63,29.77,10.0,SE,8.1,-,N/A,,Overcast,140,2014-01-14 04:35:00
11:55 PM,46.8,33.4,60,29.76,10.0,ESE,8.1,-,N/A,,Overcast,120,2014-01-14 04:55:00